Location: Unspecified
(0.0000°N, 0.0000°E)
Time: 10:00:27
(UTC+00:00)

Vanguard 1 Rocket - All Passes

Search period start: 23 July 2014 00:00
Search period end: 02 August 2014 00:00
Orbit: 651 x 4229 km, 34.3° (Epoch: 19 July)

Date Brightness Start Highest point End Pass type
(mag) Time Alt. Az. Time Alt. Az. Time Alt. Az.
23 Jul - 00:36:55 10° W 00:49:36 21° NW 00:58:13 10° N visible
23 Jul - 08:14:45 10° NNW 08:18:49 35° NE 08:24:07 10° ESE daylight
23 Jul - 10:39:27 10° W 10:44:30 30° SSW 10:52:35 10° SSE daylight
23 Jul - 13:10:18 10° SSW 13:15:21 14° S 13:21:50 10° SSE daylight
23 Jul - 15:40:34 10° SSW 15:52:30 19° SSE 16:07:48 10° ESE daylight
23 Jul - 18:08:14 10° SW 18:30:33 43° SSE 18:52:54 10° E visible
23 Jul - 20:38:31 10° SW 21:05:25 90° NW 21:24:20 10° NE visible
23 Jul - 23:16:18 10° W 23:36:38 36° NW 23:49:16 10° NNE visible
24 Jul - 07:06:29 10° N 07:08:27 13° NE 07:10:28 10° ENE daylight
24 Jul - 09:28:40 10° WNW 09:33:17 53° SSW 09:40:32 10° SE daylight
24 Jul - 11:57:18 10° SW 12:01:44 15° SSW 12:07:39 10° SSE daylight
24 Jul - 14:29:12 10° SSW 14:36:13 14° S 14:45:02 10° SE daylight
24 Jul - 16:56:12 10° SSW 17:14:20 31° SSE 17:35:39 10° E daylight
24 Jul - 19:24:33 10° SW 19:50:19 69° SE 20:11:58 10° ENE visible
24 Jul - 21:58:14 10° WSW 22:23:12 55° NW 22:39:12 10° NE visible
25 Jul - 00:44:15 10° WNW 00:54:02 16° NW 01:01:16 10° N visible
25 Jul - 08:18:32 10° NW 08:22:52 65° NE 08:28:37 10° ESE daylight
25 Jul - 10:44:55 10° WSW 10:49:15 20° SSW 10:55:26 10° SSE daylight
25 Jul - 13:18:00 10° SSW 13:20:58 11° S 13:24:20 10° SSE daylight
25 Jul - 15:44:53 10° SSW 15:58:03 22° SSE 16:15:06 10° ESE daylight
25 Jul - 18:11:43 10° SW 18:34:42 51° SE 18:57:57 10° ENE visible
25 Jul - 20:42:19 10° WSW 21:08:58 77° NW 21:28:13 10° NE visible
25 Jul - 23:22:05 10° W 23:40:36 29° NW 23:52:43 10° NNE visible
26 Jul - 07:09:05 10° NNW 07:12:38 23° NE 07:16:22 10° E daylight
26 Jul - 09:33:26 10° W 09:37:42 31° SSW 09:43:57 10° SSE daylight
26 Jul - 12:05:28 10° SSW 12:07:00 10° S 12:08:40 10° S daylight
26 Jul - 14:34:20 10° SSW 14:42:01 14° SSE 14:51:46 10° SE daylight
26 Jul - 16:59:50 10° SSW 17:18:55 37° SSE 17:41:36 10° E daylight
26 Jul - 19:28:07 10° SW 19:53:59 81° SE 20:16:08 10° ENE visible
26 Jul - 22:02:58 10° WSW 22:26:51 46° NW 22:42:48 10° NNE visible
27 Jul - 00:52:30 10° NW 00:58:51 13° NNW 01:04:02 10° N visible
27 Jul - 08:22:41 10° WNW 08:27:01 69° SW 08:32:41 10° SE daylight
27 Jul - 10:51:25 10° SW 10:54:10 13° SSW 10:57:30 10° S daylight
27 Jul - 15:48:46 10° SSW 16:03:10 25° SSE 16:22:08 10° ESE daylight
27 Jul - 18:15:14 10° SW 18:38:34 61° SE 19:02:36 10° ENE visible
27 Jul - 20:46:24 10° WSW 21:12:30 65° NW 21:31:57 10° NE visible
27 Jul - 23:28:33 10° W 23:44:53 24° NW 23:56:09 10° NNE visible
28 Jul - 07:12:32 10° NW 07:16:48 42° NE 07:21:16 10° ESE daylight
28 Jul - 09:38:46 10° WSW 09:42:18 19° SSW 09:46:55 10° SSE daylight
28 Jul - 14:38:38 10° S 14:47:36 16° SSE 14:59:19 10° SE daylight
28 Jul - 17:03:23 10° SSW 17:23:07 44° SE 17:47:02 10° ENE daylight
28 Jul - 19:31:51 10° SW 19:57:32 87° NW 20:20:05 10° NE visible
28 Jul - 22:08:12 10° W 22:30:42 38° NW 22:46:20 10° NNE visible
29 Jul - 01:02:29 10° NNW 01:04:03 10° NNW 01:05:31 10° NNW visible
29 Jul - 06:02:59 10° NNW 06:06:15 17° NNE 06:09:11 10° ENE daylight
29 Jul - 08:27:14 10° W 08:31:17 36° SSW 08:36:22 10° SE daylight
29 Jul - 15:52:26 10° SSW 16:07:51 30° SSE 16:28:40 10° E daylight
29 Jul - 18:18:48 10° SW 18:42:13 72° SE 19:06:55 10° ENE visible
29 Jul - 20:50:49 10° WSW 21:16:07 55° NW 21:35:34 10° NE visible
29 Jul - 23:35:42 10° WNW 23:49:33 19° NNW 23:59:37 10° N visible
30 Jul - 07:16:24 10° NW 07:20:57 83° NE 07:25:38 10° SE daylight
30 Jul - 09:45:30 10° SW 09:47:01 11° SSW 09:48:41 10° S daylight
30 Jul - 14:42:26 10° SSW 14:52:49 19° SSE 15:06:57 10° ESE daylight
30 Jul - 17:06:55 10° SW 17:27:00 53° SE 17:51:58 10° ENE daylight
30 Jul - 19:35:48 10° WSW 20:01:03 75° NW 20:23:50 10° NE visible
30 Jul - 22:14:02 10° W 22:34:52 31° NW 22:49:52 10° NNE visible
31 Jul - 06:06:01 10° NNW 06:10:37 31° NNE 06:14:30 10° E daylight
31 Jul - 08:32:19 10° W 08:35:40 20° SSW 08:39:35 10° SSE daylight
31 Jul - 13:35:12 10° S 13:38:01 11° SSE 13:41:08 10° SSE daylight
31 Jul - 15:55:59 10° SSW 16:12:08 37° SE 16:34:36 10° E daylight
31 Jul - 18:22:30 10° SW 18:45:46 84° SE 19:10:56 10° NE visible
31 Jul - 20:55:40 10° WSW 21:19:55 46° NW 21:39:06 10° NNE visible
31 Jul - 23:43:22 10° WNW 23:54:39 16° NNW 00:03:14 10° N visible
01 Aug - 04:55:58 10° NNW 04:59:35 16° NNE 05:02:32 10° ENE visible
01 Aug - 07:20:41 10° WNW 07:25:07 50° SW 07:29:37 10° SE daylight
01 Aug - 14:46:00 10° SSW 14:57:37 23° SSE 15:14:10 10° ESE daylight
01 Aug - 17:10:31 10° SW 17:30:40 63° SE 17:56:29 10° ENE daylight
01 Aug - 19:40:01 10° WSW 20:04:39 63° NW 20:27:26 10° NE visible
01 Aug - 22:20:28 10° W 22:39:25 26° NNW 22:53:27 10° NNE visible
